This is the latest recevied weather packets stored in our database for station/object S50ME-11. If no packets are shown the sender has not sent any weather packets the latest 10 day(s).
| Time | Temp. | Humidity | Pressure | Rain* | Wind** | Luminosity | Snow |
|---|---|---|---|---|---|---|---|
| 1777708842 | 26.67° C | 38% | 1027 hPa | - | - | - | - |
| 1777707945 | 25° C | 38% | 1027.2 hPa | - | - | - | - |
| 1777707942 | 25° C | 38% | 1027.2 hPa | - | - | - | - |
| 1777707045 | 23.89° C | 38% | 1026.6 hPa | - | - | - | - |
| 1777707041 | 23.89° C | 38% | 1026.6 hPa | - | - | - | - |
| 1777706177 | 22.22° C | 38% | 1026.3 hPa | - | - | - | - |
| 1777706145 | 22.22° C | 38% | 1026.3 hPa | - | - | - | - |
| 1777706141 | 22.22° C | 38% | 1026.3 hPa | - | - | - | - |
| 1777705246 | 21.11° C | 39% | 1026.5 hPa | - | - | - | - |
| 1777705241 | 21.11° C | 39% | 1026.5 hPa | - | - | - | - |
| 1777704345 | 19.44° C | 40% | 1026.4 hPa | - | - | - | - |
| 1777704341 | 19.44° C | 40% | 1026.4 hPa | - | - | - | - |
| 1777703445 | 17.78° C | 40% | 1026.8 hPa | - | - | - | - |
| 1777703440 | 17.78° C | 40% | 1026.8 hPa | - | - | - | - |
| 1777702545 | 16.11° C | 40% | 1027 hPa | - | - | - | - |
| 1777702540 | 16.11° C | 40% | 1027 hPa | - | - | - | - |
| 1777701655 | 15.56° C | 40% | 1026.9 hPa | - | - | - | - |
| 1777701652 | 15.56° C | 40% | 1026.9 hPa | - | - | - | - |
| 1777700755 | 15° C | 40% | 1027.5 hPa | - | - | - | - |
| 1777700751 | 15° C | 40% | 1027.5 hPa | - | - | - | - |
| 1777699854 | 15° C | 40% | 1027.5 hPa | - | - | - | - |
| 1777699851 | 15° C | 40% | 1027.5 hPa | - | - | - | - |
| 1777698954 | 14.44° C | 41% | 1026.7 hPa | - | - | - | - |
| 1777698951 | 14.44° C | 41% | 1026.7 hPa | - | - | - | - |
| 1777698054 | 13.89° C | 41% | 1026.6 hPa | - | - | - | - |
* Rain since midnight (hover to see other rain measurements)
** Current wind speed in m/s (hover to see current wind gust speed)